This demonstration page uses our WeatherBlox Daily Observations layout. Learn more.

Left ArrowRight Arrow

Hourly Observations for April 30, 2015

Temp ( °F °C ) Dew Point ( °F °C ) Humidity (%) Winds ( mph kmh ) Pressure ( in mb ) Visibility ( mi km ) Precip ( " mm )
12:16 am 00:16 Clear 50 10 36 2 58 58 N 10 17 29.83 1010 10 16.0934 N/A
12:36 am 00:36 Clear 50 10 34 1 54 54 N 10 17 29.83 1010 10 16.0934 N/A
12:56 am 00:56 Clear 48 9 34 1 58 58 N 8 13 29.85 1011 10 16.0934 N/A
1:16 am 01:16 Clear 48 9 34 1 58 58 N 8 13 29.85 1011 10 16.0934 N/A
1:36 am 01:36 Clear 46 8 34 1 62 62 NNW 7 11 29.85 1011 10 16.0934 N/A
1:56 am 01:56 Clear 46 8 32 0 57 57 NNW 7 11 29.85 1011 10 16.0934 N/A
2:16 am 02:16 Clear 45 7 32 0 61 61 WNW 7 11 29.85 1011 10 16.0934 N/A
2:36 am 02:36 Clear 45 7 32 0 61 61 NW 6 9 29.85 1011 10 16.0934 N/A
2:55 am 02:55 Clear 45 7 32 0 61 61 NW 5 7 29.85 1011 10 16.0934 N/A
3:16 am 03:16 Clear 45 7 32 0 61 61 NNW 6 9 29.83 1010 10 16.0934 N/A
3:35 am 03:35 Clear 43 6 32 0 66 66 WNW 7 11 29.85 1011 10 16.0934 N/A
3:56 am 03:56 Clear 43 6 32 0 66 66 NW 3 6 29.83 1010 10 16.0934 N/A
4:16 am 04:16 Clear 43 6 32 0 66 66 NW 5 7 29.83 1010 10 16.0934 N/A
4:35 am 04:35 Clear 43 6 32 0 66 66 WNW 5 7 29.85 1011 10 16.0934 N/A
4:56 am 04:56 Clear 43 6 32 0 66 66 N 3 6 29.83 1010 10 16.0934 N/A
5:16 am 05:16 Clear 41 5 32 0 70 70 WNW 3 6 29.85 1011 10 16.0934 N/A
5:36 am 05:36 Clear 39 4 32 0 75 75 WNW 6 9 29.85 1011 10 16.0934 N/A
5:56 am 05:56 Clear 41 5 30 -1 66 66 NW 7 11 29.85 1011 10 16.0934 N/A
6:16 am 06:16 Clear 41 5 30 -1 66 66 NNW 8 13 29.85 1011 10 16.0934 N/A
6:36 am 06:36 Clear 41 5 32 0 70 70 NNE 8 13 29.85 1011 10 16.0934 N/A
6:56 am 06:56 Sunny 39 4 32 0 75 75 N 8 13 29.85 1011 10 16.0934 N/A
7:16 am 07:16 Sunny 41 5 32 0 70 70 N 7 11 29.85 1011 10 16.0934 N/A
7:36 am 07:36 Sunny 41 5 32 0 70 70 Calm 29.85 1011 10 16.0934 N/A
7:56 am 07:56 Sunny 45 7 32 0 61 61 Calm 29.85 1011 10 16.0934 N/A
8:16 am 08:16 Sunny 45 7 32 0 61 61 NNW 9 15 29.85 1011 10 16.0934 N/A
8:36 am 08:36 Sunny 48 9 34 1 58 58 N 13 20 29.85 1011 10 16.0934 N/A
8:56 am 08:56 Sunny 48 9 34 1 58 58 N 10 17 29.88 1012 10 16.0934 N/A
9:16 am 09:16 Sunny 46 8 34 1 62 62 N 8 13 29.88 1012 10 16.0934 N/A
9:36 am 09:36 Sunny 50 10 36 2 58 58 N 9 15 29.88 1012 10 16.0934 N/A
9:56 am 09:56 Sunny 50 10 36 2 58 58 NW 9 15 29.91 1013 10 16.0934 N/A
10:16 am 10:16 Sunny 52 11 34 1 50 50 WNW 5 7 29.85 1011 10 16.0934 N/A
10:36 am 10:36 Sunny 54 12 36 2 51 51 N 7 11 29.85 1011 10 16.0934 N/A
10:56 am 10:56 Sunny 55 13 36 2 47 47 NW 5 7 29.85 1011 10 16.0934 N/A
11:15 am 11:15 Sunny 55 13 36 2 47 47 N 7 11 29.85 1011 10 16.0934 N/A
11:36 am 11:36 Sunny 55 13 36 2 47 47 NNW 10 17 29.88 1012 10 16.0934 N/A
11:56 am 11:56 Sunny 55 13 37 3 51 51 N 10 17 29.88 1012 10 16.0934 N/A
12:15 pm 12:15 Sunny 57 14 37 3 48 48 N 13 20 29.88 1012 10 16.0934 N/A
12:36 pm 12:36 Partly Cloudy 57 14 36 2 44 44 N 13 20 29.88 1012 10 16.0934 N/A
12:56 pm 12:56 Sunny 55 13 34 1 44 44 N 10 17 29.88 1012 10 16.0934 N/A
1:15 pm 13:15 Partly Cloudy 55 13 34 1 44 44 N 14 22 29.88 1012 10 16.0934 N/A
1:36 pm 13:36 Partly Cloudy 57 14 32 0 39 39 N 14 22 29.88 1012 10 16.0934 N/A
1:56 pm 13:56 Partly Cloudy 57 14 28 -2 33 33 N 20 31 29.88 1012 10 16.0934 N/A
2:16 pm 14:16 Partly Cloudy 55 13 27 -3 33 33 NNW 17 28 29.88 1012 10 16.0934 N/A
2:36 pm 14:36 Sunny 57 14 27 -3 31 31 N 17 28 29.88 1012 10 16.0934 N/A
2:56 pm 14:56 Sunny 57 14 23 -5 27 27 N 21 33 29.88 1012 10 16.0934 N/A
3:16 pm 15:16 Sunny 61 16 23 -5 23 23 N 17 28 29.88 1012 10 16.0934 N/A
3:36 pm 15:36 Sunny 59 15 21 -6 23 23 NNW 17 28 29.88 1012 10 16.0934 N/A
3:56 pm 15:56 Sunny 57 14 19 -7 23 23 N 15 24 29.88 1012 10 16.0934 N/A
4:16 pm 16:16 Sunny 59 15 18 -8 20 20 NNW 16 26 29.88 1012 10 16.0934 N/A
4:36 pm 16:36 Sunny 57 14 18 -8 21 21 N 10 17 29.91 1013 10 16.0934 N/A
4:56 pm 16:56 Partly Cloudy 59 15 18 -8 20 20 N 13 20 29.91 1013 10 16.0934 N/A
5:16 pm 17:16 Sunny 57 14 18 -8 21 21 NNW 8 13 29.91 1013 10 16.0934 N/A
5:36 pm 17:36 Sunny 59 15 18 -8 20 20 NNW 15 24 29.91 1013 10 16.0934 N/A
5:55 pm 17:55 Sunny 59 15 18 -8 20 20 N 13 20 29.91 1013 10 16.0934 N/A
6:16 pm 18:16 Partly Cloudy 57 14 21 -6 25 25 N 16 26 29.91 1013 10 16.0934 N/A
6:36 pm 18:36 Sunny 57 14 19 -7 23 23 NNW 16 26 29.94 1014 10 16.0934 N/A
6:56 pm 18:56 Sunny 55 13 19 -7 24 24 N 14 22 29.94 1014 10 16.0934 N/A
7:16 pm 19:16 Sunny 57 14 19 -7 23 23 NNW 16 26 29.94 1014 10 16.0934 N/A
7:36 pm 19:36 Sunny 57 14 18 -8 21 21 NNW 17 28 29.94 1014 10 16.0934 N/A
7:56 pm 19:56 Sunny 55 13 23 -5 28 28 NNW 13 20 29.97 1015 10 16.0934 N/A
8:16 pm 20:16 Sunny 54 12 25 -4 33 33 NNW 17 28 29.97 1015 10 16.0934 N/A
8:36 pm 20:36 Sunny 52 11 27 -3 38 38 NNW 15 24 30 1016 10 16.0934 N/A
8:56 pm 20:56 Clear 50 10 28 -2 43 43 NNW 15 24 30 1016 10 16.0934 N/A
9:16 pm 21:16 Clear 50 10 28 -2 43 43 NNW 12 19 30.03 1017 10 16.0934 N/A
9:35 pm 21:35 Clear 48 9 28 -2 46 46 NNW 15 24 30.03 1017 10 16.0934 N/A
9:56 pm 21:56 Clear 48 9 28 -2 46 46 N 14 22 30.03 1017 10 16.0934 N/A
10:16 pm 22:16 Clear 46 8 28 -2 50 50 N 13 20 30.06 1018 10 16.0934 N/A
10:35 pm 22:35 Clear 46 8 28 -2 50 50 N 10 17 30.06 1018 10 16.0934 N/A
10:56 pm 22:56 Clear 45 7 30 -1 57 57 N 7 11 30.06 1018 10 16.0934 N/A
11:16 pm 23:16 Clear 45 7 30 -1 57 57 N 8 13 30.06 1018 10 16.0934 N/A
11:36 pm 23:36 Partly Cloudy 45 7 30 -1 57 57 NNW 6 9 30.06 1018 10 16.0934 N/A
11:56 pm 23:56 Mostly Cloudy 46 8 30 -1 53 53 NNW 7 11 30.06 1018 10 16.0934 N/A

Powered by AerisWeather